Vorticity
4 3 4 2 6 0 3 10 -3 2 10 4 2 6 -8 -12 19 3 -23 4 17 20 18 0 1 -2 -5 -1 -5 -4 -6 -11 -8 -1 -2 -7 -5 -4 -0 -0 -1 1 2 2 3 5 6 7 4 5 1 1 10 14 13 10 7 7 8 6 4 3 2 3 2 3 3 3 4 4 5 4 4 4 4 2 1 1 1 2 6 7 6 5 5 12 14 7 4 5 6 6 6 7 7 7 7
4 3 5 2 6 -1 1 13 -4 -3 9 3 -2 6 -1 -13 12 16 -2 6 1 -10 -0 2 2 2 1 2 -2 -2 -3 1 6 3 1 -1 -1 1 3 1 -0 1 2 3 3 5 7 6 5 3 -0 2 13 14 11 10 7 7 8 7 5 3 3 2 2 3 3 4 4 4 6 5 4 5 4 2 1 1 2 1 4 7 6 6 5 6 11 11 6 4 6 7 6 6 7 7 7
5 3 5 2 5 3 1 8 1 -1 5 1 -2 10 8 -5 5 14 10 7 -1 -9 -4 1 2 5 3 6 7 5 5 7 6 -1 -2 1 1 1 1 1 1 2 3 3 4 5 7 5 4 2 -1 4 15 14 10 9 6 7 8 8 6 4 4 2 3 3 3 4 4 5 5 5 4 4 3 3 2 1 2 1 2 6 6 5 6 6 7 11 11 7 5 6 7 6 7 7 7
4 3 4 3 4 5 2 4 6 2 1 -1 -4 4 3 3 9 6 5 -5 -0 6 2 4 4 5 2 4 3 2 5 -0 -1 2 2 3 3 3 2 2 2 2 3 4 5 6 7 4 3 0 -1 6 16 14 9 9 6 6 8 8 7 5 4 3 3 3 3 3 3 5 6 6 4 4 3 3 2 2 1 1 2 4 6 6 5 6 5 8 12 12 8 6 6 6 6 7 7
3 3 3 3 1 4 6 4 6 3 3 1 -3 0 -5 3 6 3 18 7 1 6 1 3 4 4 0 1 3 1 3 -2 -1 0 -1 2 2 2 1 2 3 3 4 5 5 7 6 3 2 -0 1 8 16 14 9 8 6 7 8 7 7 6 5 4 4 4 3 3 4 5 6 6 4 4 4 3 2 2 1 0 2 3 5 6 5 5 5 5 8 11 12 10 7 5 6 7 7
3 3 2 3 2 4 6 3 5 4 4 1 -3 -0 -9 -6 -4 -4 17 11 3 6 3 2 1 6 5 1 4 2 -2 -4 0 -1 -2 -0 -1 0 1 3 3 4 4 5 5 6 4 2 2 1 3 11 16 13 9 8 7 7 8 7 7 6 5 4 4 4 4 3 5 5 6 7 4 3 3 4 3 2 2 0 1 3 5 6 5 4 5 5 5 8 11 12 10 6 4 5 7
2 2 3 2 2 4 4 3 5 4 5 4 2 6 -3 -10 -5 2 8 5 6 5 3 4 -2 2 7 5 4 6 5 3 3 1 2 1 -0 1 1 3 3 5 5 4 5 4 3 1 2 2 5 14 17 11 9 8 7 7 6 7 7 6 5 4 4 4 4 4 5 5 6 7 5 3 4 5 4 3 2 1 2 3 4 6 6 3 4 5 6 7 8 10 12 11 5 2 5
2 -0 2 4 1 3 5 4 4 4 4 4 4 7 5 -1 4 9 5 3 5 5 6 8 3 -2 0 3 2 2 5 9 7 3 6 5 4 4 3 5 5 6 5 3 5 3 2 1 0 3 7 16 17 9 9 7 6 6 6 7 7 7 6 4 5 4 5 4 5 6 6 8 5 3 4 5 4 3 2 1 2 3 4 7 7 3 2 5 6 7 8 8 9 11 9 4 3
0 -1 -0 5 3 0 4 4 3 5 3 3 5 4 4 5 10 9 4 4 3 3 6 10 13 7 1 3 5 3 2 3 4 4 7 7 6 6 6 6 5 5 4 3 4 3 2 1 0 3 9 18 16 8 8 6 5 5 5 6 6 7 6 5 5 5 5 5 6 6 7 7 5 3 3 4 4 3 2 1 1 3 5 7 9 4 1 4 6 6 8 9 8 9 10 7 4
-0 -0 -4 2 5 1 2 3 2 3 3 3 3 5 5 4 8 7 2 4 4 4 4 7 13 13 9 5 5 8 7 4 4 4 3 4 7 6 7 6 6 5 2 3 4 2 2 0 1 5 12 18 14 7 7 5 5 5 5 5 6 6 5 6 5 5 5 6 6 6 8 7 5 4 3 4 4 3 1 1 1 3 6 8 9 6 1 3 5 5 7 9 9 9 9 10 7
1 3 -3 -0 4 1 -2 -1 1 -0 3 1 -1 4 3 1 2 2 4 5 4 3 2 3 4 7 3 -4 0 4 4 4 4 6 4 4 4 4 7 6 4 3 1 4 3 1 1 0 3 7 14 19 13 6 6 5 4 4 5 5 5 6 6 6 6 7 6 6 6 6 7 7 5 4 3 4 4 3 2 2 3 4 7 10 9 6 2 2 4 5 6 7 8 9 9 10 10
3 6 3 2 4 3 -2 -3 -2 -3 1 -2 4 11 -1 -3 2 1 5 4 2 3 3 2 0 -2 -9 -9 2 -0 -5 -1 -2 0 2 3 5 4 4 3 2 2 2 3 1 -0 1 2 5 9 15 18 11 6 6 6 5 4 4 6 6 6 7 7 7 8 8 6 6 7 8 6 6 4 3 3 4 4 3 3 3 5 8 11 9 5 3 3 3 4 5 6 7 8 8 9 10
8 6 9 8 6 8 4 1 -0 -2 4 -5 -1 10 -2 -6 -3 -1 3 1 0 -0 -1 1 1 -2 -8 -4 4 -0 -3 -1 -3 -0 1 0 3 3 2 1 1 0 0 1 -0 0 3 5 7 10 17 17 10 6 7 5 4 6 6 6 7 7 7 7 8 9 8 7 6 7 7 6 6 4 4 4 5 5 3 4 4 6 10 11 8 4 3 2 3 4 5 6 6 7 7 8 8
13 10 12 14 9 10 10 8 4 2 11 4 -4 6 10 10 -1 -5 -1 -2 -2 -4 -5 -4 -4 -4 -4 -1 3 4 3 3 4 4 5 2 -1 -0 0 -1 -1 -0 0 1 1 3 6 6 8 13 17 16 10 7 6 6 7 7 7 6 6 6 6 6 7 8 8 8 8 8 7 7 6 6 6 5 6 5 5 6 6 8 10 9 5 3 3 3 4 4 4 6 6 6 7 6 6
9 11 12 14 11 13 12 10 9 4 7 9 10 16 18 20 15 7 4 -0 -1 -2 -2 -0 0 3 7 8 10 9 8 9 10 10 11 8 2 -1 -1 -1 1 1 2 4 4 5 6 6 11 17 19 15 9 7 7 8 8 6 4 5 5 5 6 6 6 6 7 9 9 9 8 8 8 7 5 5 5 6 7 6 9 11 9 7 3 2 4 4 5 4 4 5 6 6 5 4 1
7 7 7 9 8 9 11 13 15 10 8 9 14 16 8 11 20 20 17 13 10 11 12 14 16 16 18 16 14 12 14 16 12 14 16 11 7 3 1 2 3 3 4 5 4 5 6 9 14 17 19 13 7 8 9 8 5 4 4 4 5 5 5 6 7 8 8 10 11 10 9 9 7 6 5 5 5 6 7 6 10 13 8 4 3 3 3 4 5 4 4 5 6 6 5 2 -1
11 9 8 8 7 6 5 8 10 12 17 19 16 11 6 11 18 18 19 20 19 19 18 19 20 18 18 15 14 11 15 21 16 15 15 11 10 6 5 4 4 4 3 3 4 7 9 12 16 18 17 11 9 10 7 5 3 3 4 4 4 4 6 8 10 9 9 9 9 8 8 8 6 6 6 6 7 8 7 7 13 13 6 3 3 4 3 3 4 3 5 5 6 7 7 5 3
13 13 12 11 12 10 6 5 9 14 10 9 12 7 7 13 15 13 13 16 17 16 15 15 15 15 13 13 14 12 13 17 14 12 12 11 11 8 7 5 5 4 3 4 6 9 12 14 16 17 15 11 10 8 4 2 2 4 3 3 4 6 8 10 9 8 9 9 7 7 6 6 6 6 7 8 8 9 8 9 14 12 5 3 4 3 3 3 3 4 6 6 6 6 8 8 6
10 11 12 12 14 12 10 7 5 8 -1 -3 7 5 4 8 9 10 7 10 13 11 12 10 10 11 11 12 12 13 19 19 12 11 11 10 9 8 8 6 5 5 5 7 9 12 13 15 17 16 13 12 10 4 1 1 2 4 4 3 5 9 10 8 8 8 9 10 8 8 6 6 7 7 7 8 8 7 8 11 13 10 5 3 4 4 3 3 4 7 9 7 6 6 7 8 8
6 8 9 10 13 13 12 8 -0 0 3 4 8 5 3 7 7 5 3 7 9 9 12 10 8 9 9 10 9 12 21 18 13 12 11 10 9 8 8 7 7 7 8 10 12 14 13 13 16 15 11 10 8 1 -2 0 4 5 3 5 8 9 8 5 6 7 7 8 7 7 6 6 6 7 7 7 8 8 8 11 12 9 6 5 5 4 4 4 5 8 9 7 5 6 7 7 8
5 6 7 8 12 16 12 13 15 10 8 7 7 7 3 6 9 5 3 5 7 9 10 9 7 7 7 9 10 12 13 11 11 12 10 10 10 8 8 8 8 9 10 13 14 13 11 14 15 12 9 8 5 0 -2 1 5 5 3 6 8 7 5 5 6 7 8 7 6 6 6 7 6 7 7 7 7 8 8 9 10 8 7 6 5 4 5 5 6 8 8 6 5 5 6 6 7
6 6 6 7 10 14 6 9 23 19 14 10 7 6 2 6 9 5 5 5 4 5 6 8 9 7 6 7 9 10 9 8 9 9 9 9 9 7 7 8 9 10 11 13 13 10 10 14 15 11 8 7 4 1 0 4 6 3 4 5 5 5 5 6 7 8 9 8 7 7 6 6 7 6 6 7 7 7 8 8 8 7 6 6 6 6 6 6 6 8 8 6 5 5 6 6 6
6 7 5 6 7 10 6 6 16 18 18 16 13 7 4 8 6 5 7 6 5 4 4 5 8 10 7 5 6 7 9 9 8 8 8 9 8 8 9 9 8 10 14 13 9 9 13 14 12 9 8 7 5 4 1 3 7 3 2 4 3 5 5 6 8 8 8 8 7 6 6 6 6 7 6 7 7 7 7 8 8 6 6 7 7 8 8 9 9 9 8 5 5 6 6 7 7
5 6 5 4 6 9 9 9 10 13 16 17 18 15 10 6 3 7 8 6 7 5 5 3 4 8 7 8 5 7 15 11 8 8 7 8 9 10 9 9 11 14 13 10 9 11 14 14 9 7 7 7 6 4 2 3 6 3 2 3 3 4 4 4 6 7 8 8 8 7 7 7 6 7 7 8 7 6 6 6 6 6 8 8 8 10 10 12 13 10 7 5 5 6 6 6 6
5 5 8 5 5 8 7 8 8 9 11 13 16 19 18 10 3 8 8 9 9 5 6 4 5 6 7 11 5 12 19 8 7 10 9 10 9 10 11 12 15 14 11 7 8 12 15 12 6 4 6 6 6 3 1 4 5 3 2 2 3 2 1 3 4 6 9 9 9 9 8 7 7 8 7 5 4 6 5 3 5 8 9 9 10 11 11 12 11 8 7 7 6 6 6 5 4
6 3 9 7 4 7 6 6 7 7 8 9 10 15 21 17 8 7 8 12 11 7 6 5 7 6 7 9 4 11 13 3 8 11 11 13 11 13 13 14 14 9 7 7 8 12 13 11 5 3 5 4 3 2 1 5 7 2 1 2 1 1 1 2 4 5 8 9 9 9 8 8 8 8 7 5 4 6 6 4 6 9 8 8 9 8 9 9 8 7 7 7 6 6 6 6 6
7 2 5 8 3 4 5 4 5 6 6 7 7 10 18 19 14 8 8 12 10 7 8 6 6 6 7 8 4 8 8 4 8 6 7 11 11 13 12 10 10 7 6 6 9 12 10 9 6 3 5 5 3 3 3 6 7 3 2 3 1 2 2 1 3 6 6 7 8 8 8 8 7 7 8 8 8 7 6 6 7 9 7 5 6 6 8 9 7 7 6 6 6 7 8 7 8
8 4 3 7 5 4 6 4 6 5 5 7 8 11 13 13 15 13 8 9 9 7 7 6 7 7 7 8 5 6 7 5 5 5 5 7 7 8 8 9 9 8 6 6 8 11 10 7 6 6 5 6 6 5 5 6 7 4 2 3 2 1 1 1 2 5 6 6 6 7 7 8 7 6 7 7 7 8 7 8 9 9 7 2 1 3 6 9 8 7 7 7 6 8 9 8 8
7 5 3 7 7 5 6 5 5 6 6 7 9 11 9 8 15 15 9 10 11 11 9 6 6 6 6 9 8 6 7 5 3 5 4 4 6 5 5 9 11 8 5 6 9 9 10 8 5 6 6 6 8 7 6 8 7 4 3 2 3 3 1 1 2 3 5 6 6 7 8 7 6 5 6 6 7 8 8 8 9 9 6 0 -3 -1 3 7 9 8 7 7 7 8 9 8 7
5 6 4 5 6 5 6 6 5 6 6 8 10 10 6 8 14 13 10 11 11 12 11 8 7 7 7 8 8 7 7 5 3 3 3 3 4 5 7 8 10 9 7 8 10 9 10 8 5 4 5 7 8 7 5 8 7 3 3 2 2 3 2 1 2 3 4 5 6 6 7 6 6 6 5 7 7 8 8 7 8 8 6 1 -3 -3 1 5 9 9 7 7 8 7 7 7 7
4 6 5 4 6 5 5 5 6 7 6 7 11 10 8 9 12 11 10 9 7 9 10 9 8 8 7 6 6 9 8 5 3 1 3 5 3 5 7 6 7 9 12 14 11 10 9 7 7 5 5 8 8 7 6 7 6 3 3 3 3 2 3 4 2 2 3 5 6 6 6 6 6 6 6 8 8 7 8 7 7 8 7 4 -1 -1 2 4 8 9 7 7 8 7 5 6 6
4 5 6 5 5 4 7 7 4 7 7 7 10 12 12 12 13 11 7 9 9 8 10 6 7 11 10 8 6 7 7 4 2 2 3 3 4 5 5 6 14 16 16 17 12 8 9 8 7 5 6 8 7 7 8 7 5 4 4 3 3 2 3 4 3 2 3 4 5 6 7 7 6 6 6 7 7 7 7 7 7 7 7 6 4 3 4 4 7 9 7 8 7 6 6 6 7
5 4 5 6 6 3 12 18 5 4 9 6 10 15 10 9 19 20 8 6 9 8 8 5 8 14 11 8 8 5 4 3 1 4 5 4 4 5 11 16 17 15 9 11 13 8 8 8 5 6 6 6 7 8 8 6 4 3 4 3 3 4 3 3 3 2 2 4 6 6 7 8 6 5 6 6 6 7 7 7 7 7 7 7 6 5 4 4 7 9 8 8 7 5 6 6 7
7 6 4 6 8 1 6 18 6 1 10 6 10 18 10 1 13 30 23 7 7 9 7 6 6 4 3 5 7 5 2 2 4 5 3 5 6 5 16 23 10 5 7 8 11 9 8 7 5 6 6 5 7 8 7 6 6 3 3 4 3 2 3 3 2 2 2 3 4 6 7 7 6 5 5 6 6 6 7 8 7 7 7 6 5 5 4 5 7 8 8 8 6 5 5 6 6
9 8 6 3 8 1 -3 14 11 -1 7 8 7 16 17 1 -3 25 38 13 3 8 7 10 9 2 5 7 5 6 4 2 5 6 5 5 7 8 14 18 8 4 9 8 7 9 11 10 8 7 6 6 5 6 8 6 4 3 1 2 3 3 4 3 2 3 5 3 2 6 8 6 6 5 5 6 6 7 7 8 8 7 7 6 7 6 6 8 8 8 8 7 6 5 5 6 6
9 9 7 3 14 11 -7 6 15 2 3 8 7 15 21 2 -16 5 31 21 5 6 9 10 8 5 7 7 5 5 4 6 7 4 5 7 9 10 9 12 15 10 3 2 6 9 10 10 11 10 7 5 5 6 7 5 4 4 2 1 2 4 5 5 4 3 3 3 5 7 7 7 6 5 6 6 6 7 7 8 9 9 9 9 9 9 9 9 8 8 8 6 5 4 5 6 6
8 10 11 2 10 18 1 1 11 4 4 6 6 15 21 3 -19 -19 -1 13 11 3 6 9 8 10 8 7 7 7 7 7 7 4 4 9 7 6 6 8 16 15 3 -0 4 4 6 10 10 10 10 7 6 7 5 6 7 3 3 6 7 7 8 7 6 5 2 2 5 6 6 6 6 6 6 7 7 8 9 9 10 10 10 10 10 10 9 8 8 8 8 5 4 4 5 5 5
2 8 19 6 -4 9 11 7 7 3 4 7 6 10 21 13 -6 -12 -7 5 14 7 3 7 9 9 8 7 5 9 14 6 3 7 6 6 4 4 6 2 5 14 10 2 2 5 3 4 8 9 10 9 6 6 5 4 4 5 9 12 11 12 13 10 8 9 9 9 7 5 5 5 5 6 6 7 8 9 10 9 10 10 9 9 8 8 7 8 9 9 7 5 4 5 4 4 4
-1 -3 9 6 -3 5 13 13 7 3 5 6 9 7 14 21 3 -3 6 6 11 14 8 4 3 8 11 9 10 16 15 7 7 8 5 6 5 5 7 4 5 10 12 9 6 11 9 2 6 8 7 9 6 3 7 12 12 13 14 16 19 15 9 6 6 4 2 3 5 3 4 5 4 6 6 7 8 9 10 10 9 10 8 8 7 7 7 8 10 9 7 4 3 4 4 4 4
4 -2 1 2 4 3 8 23 14 2 7 6 11 12 8 22 13 -0 11 11 5 11 13 7 -0 7 14 6 12 25 11 1 9 7 3 5 3 4 5 9 14 6 5 14 12 13 16 7 3 6 6 6 4 2 8 16 16 12 6 4 9 8 5 3 1 4 3 0 4 4 4 5 4 5 6 7 8 9 9 9 9 9 8 8 7 7 8 9 10 9 7 5 4 3 3 4 3
6 7 8 6 13 6 -3 24 23 -1 6 5 2 12 8 13 15 5 11 12 6 8 10 11 5 4 12 5 7 18 5 1 14 10 3 4 3 6 5 8 17 10 3 11 16 18 18 11 3 5 6 1 6 15 11 2 2 9 8 0 1 6 14 11 1 8 11 3 3 4 3 4 4 4 5 6 7 8 8 8 8 9 8 8 8 9 9 10 11 10 7 5 4 3 3 3 3
8 9 9 -0 9 14 -8 3 19 2 2 5 -4 4 10 7 7 8 12 11 7 7 4 7 10 8 12 9 6 13 6 1 11 10 4 4 4 6 8 12 14 12 14 13 12 15 15 10 4 4 5 -3 -1 13 15 7 4 6 3 4 8 1 3 11 5 5 7 3 3 4 4 5 3 3 4 5 6 6 7 8 8 9 9 8 9 9 10 11 11 10 8 5 3 3 3 2 3
11 9 9 -2 -9 10 10 -0 9 6 -1 7 4 -0 8 13 12 7 10 18 14 8 9 8 5 6 11 9 8 17 12 -3 3 12 7 3 3 3 9 16 12 11 23 19 6 7 10 9 7 8 6 -5 -10 -4 5 13 18 16 6 4 9 1 2 13 7 -0 3 5 5 3 4 3 3 4 3 3 4 5 7 8 9 9 9 8 8 9 9 10 11 10 9 6 5 4 3 3 3
12 10 11 8 -12 -10 18 17 5 10 8 11 14 -0 -2 14 24 16 5 13 18 10 10 11 10 10 8 8 8 11 11 2 4 8 4 2 3 2 7 14 14 13 20 16 2 -3 0 6 10 11 6 2 1 -3 -1 8 13 15 9 2 7 14 14 7 -2 0 4 5 5 3 3 3 3 4 4 4 4 5 7 8 9 9 9 9 8 8 8 8 10 10 9 8 7 5 5 5 4
10 16 11 8 -1 -18 -1 16 7 7 8 13 21 5 -11 -6 10 27 19 4 6 11 11 8 16 19 5 4 9 4 2 1 1 2 1 4 4 1 3 8 12 15 16 11 -1 -9 -5 10 16 9 4 3 1 -1 6 12 5 2 10 14 10 3 -2 -8 -4 4 4 4 6 4 3 4 4 4 4 5 5 5 6 6 7 8 8 9 8 8 8 7 8 8 8 8 7 7 7 6 6
2 20 25 5 6 -3 -10 4 7 8 1 0 21 17 1 -9 -9 19 29 11 3 6 11 12 15 20 12 10 13 5 6 10 6 6 4 1 4 3 -0 4 12 13 15 12 2 -3 4 19 22 9 2 -0 -1 6 9 3 -3 3 17 21 6 -4 -1 3 5 5 3 6 7 4 5 5 5 5 5 5 5 5 5 5 6 7 7 9 9 8 8 7 7 7 7 7 7 8 8 8 8
-6 5 25 7 5 8 2 4 5 11 1 -11 6 13 7 -2 -12 6 15 8 11 5 3 14 11 11 14 12 9 8 15 18 9 4 3 0 3 4 0 3 12 12 13 11 -0 -4 4 12 17 13 8 2 -0 8 10 7 13 13 7 4 2 5 8 6 5 6 6 7 6 5 6 5 5 7 6 6 6 5 5 6 6 7 7 8 8 9 8 8 8 7 7 7 7 8 8 8 8
-1 -5 11 8 5 6 6 9 3 6 5 -1 3 1 6 8 -7 9 18 -1 2 10 9 14 9 6 9 7 8 16 15 10 8 4 4 6 4 5 5 2 8 12 12 8 -2 -2 6 10 13 15 12 6 6 18 20 16 16 5 -4 3 9 8 6 5 7 7 6 6 7 6 5 6 7 7 7 8 7 6 5 5 6 6 6 7 7 8 8 9 9 8 8 7 7 7 7 7 7
7 3 8 7 6 4 1 5 5 5 5 9 14 1 6 16 -9 -5 33 27 1 0 8 12 12 10 10 7 8 17 14 6 10 9 5 9 7 7 7 1 7 13 9 9 9 9 12 14 16 14 9 6 10 20 13 -1 -4 -4 0 8 7 5 6 7 6 6 7 8 7 6 5 6 7 7 8 7 6 6 5 4 5 5 5 6 6 7 8 9 9 9 9 9 9 8 7 7 6
4 5 10 9 5 7 3 2 8 8 -1 0 13 7 4 18 3 -20 9 40 19 -0 4 5 9 9 5 10 12 11 13 8 8 11 9 10 9 9 8 4 8 10 9 17 17 8 8 15 16 12 11 7 -1 -5 -8 -8 -2 3 6 7 5 7 7 5 6 7 7 7 6 6 5 4 6 7 8 7 6 6 6 5 5 5 5 4 4 5 5 6 6 7 7 8 9 9 9 9 8
9 6 11 14 8 10 7 2 11 16 10 5 3 5 4 12 20 -8 -24 4 14 4 7 4 5 8 3 7 11 7 9 9 7 10 10 8 8 11 10 9 9 8 13 18 5 -2 8 16 16 11 7 3 -6 -8 -1 6 9 8 8 7 7 6 5 5 7 6 6 7 7 5 4 5 7 7 7 7 6 5 5 6 5 4 4 3 3 3 4 4 5 5 5 5 5 6 7 7 8
13 7 9 12 2 16 25 0 -2 11 13 16 5 -3 2 -1 8 10 -11 -9 6 4 6 7 3 7 7 3 5 7 9 9 8 8 8 6 8 10 7 9 11 7 11 12 -0 1 10 11 13 10 3 2 3 5 8 9 9 9 8 7 6 7 7 8 8 8 9 7 5 4 5 6 7 7 7 6 5 5 5 5 5 4 3 3 3 3 4 5 5 5 5 5 5 5 5 5 5
18 10 9 10 -14 5 43 16 -5 6 3 15 18 -4 -5 -4 -10 6 10 -4 -1 2 1 5 6 3 6 5 4 6 8 8 10 11 10 7 6 7 8 12 11 6 9 13 11 13 10 4 5 4 4 10 11 10 10 9 9 8 6 6 7 7 7 8 9 9 8 6 6 6 6 7 7 6 6 5 6 6 6 6 5 5 5 5 5 5 6 6 5 6 6 5 6 6 6 6 6
17 16 9 14 -12 -19 29 42 23 14 -6 4 33 14 -3 9 -0 -3 12 4 -7 -3 -3 -0 7 4 2 6 5 5 6 7 9 9 11 13 11 8 8 10 9 7 9 10 16 19 10 3 1 1 6 11 10 10 12 11 8 7 7 7 7 6 7 8 8 7 7 6 7 7 7 7 5 5 5 5 6 6 6 6 6 6 8 8 8 8 8 8 7 7 7 6 6 6 6 7 6
7 20 8 10 3 -29 -14 27 32 21 -2 -12 25 37 4 2 11 0 5 14 5 -0 0 0 4 5 5 6 6 7 8 7 8 9 13 17 15 11 7 6 7 10 12 11 14 15 5 -1 -0 4 8 8 10 12 11 11 10 9 8 7 6 5 5 6 6 5 5 6 7 7 7 6 4 5 6 4 5 6 6 6 6 8 9 9 10 9 9 9 8 7 7 8 7 7 7 7 7
-2 10 8 3 8 -13 -27 4 20 20 16 -16 -9 46 45 13 14 10 -0 9 12 6 5 5 4 3 5 6 6 7 8 9 10 11 12 12 13 12 9 7 7 10 15 13 9 8 2 -3 -0 7 9 8 10 11 10 11 11 9 10 9 7 6 5 5 6 5 5 5 6 6 5 5 5 5 4 3 5 6 6 7 9 10 9 8 9 9 9 8 8 8 8 8 8 9 8 8 8
2 -0 8 6 9 -2 -19 6 22 13 29 13 -32 -9 35 26 13 14 8 3 3 4 4 3 4 4 4 5 6 8 8 10 12 11 10 10 13 14 10 9 8 7 13 10 6 9 6 -3 -3 4 7 9 10 8 7 8 8 9 10 8 7 8 7 6 5 5 7 6 6 6 5 4 4 3 3 3 4 5 5 7 9 8 7 7 9 9 9 8 8 9 9 9 9 8 9 9 9
16 3 2 3 9 9 -12 -2 20 5 16 45 12 -27 -10 9 5 6 14 12 5 5 5 3 3 4 4 4 5 9 9 9 11 10 10 11 13 13 12 10 8 7 11 10 10 14 9 3 3 -0 0 6 8 6 6 7 7 7 7 7 10 11 10 10 9 8 9 8 7 6 4 3 3 3 3 3 4 4 4 6 6 5 4 7 10 9 8 8 8 9 9 9 9 8 10 10 10
Height
5867 5868 5869 5871 5872 5874 5876 5876 5879 5879 5879 5881 5883 5886 5888 5888 5885 5883 5884 5885 5887 5878 5875 5881 5881 5881 5882 5882 5883 5881 5881 5881 5880 5880 5878 5879 5880 5880 5879 5878 5878 5879 5879 5880 5880 5880 5880 5879 5878 5877 5876 5874 5874 5873 5872 5871 5870 5869 5868 5867 5866 5866 5865 5864 5864 5863 5863 5862 5862 5861 5861 5860 5859 5859 5858 5857 5856 5855 5854 5853 5852 5851 5850 5848 5847 5846 5846 5845 5845 5844 5843 5842 5841 5840 5840 5839 5839
5865 5866 5867 5869 5871 5873 5873 5873 5877 5876 5877 5880 5881 5884 5886 5888 5884 5883 5884 5884 5881 5873 5873 5880 5880 5879 5880 5880 5882 5880 5878 5880 5880 5879 5879 5879 5879 5880 5880 5879 5879 5879 5879 5880 5880 5880 5879 5878 5878 5876 5875 5874 5873 5872 5871 5870 5870 5869 5868 5867 5866 5865 5865 5864 5864 5864 5863 5862 5862 5861 5861 5860 5860 5859 5858 5857 5856 5855 5854 5853 5853 5851 5850 5848 5847 5847 5846 5845 5845 5844 5843 5842 5841 5840 5839 5839 5838
5863 5865 5866 5867 5868 5870 5871 5872 5873 5874 5876 5877 5881 5884 5886 5887 5884 5883 5883 5878 5870 5871 5877 5878 5878 5878 5879 5879 5879 5878 5876 5879 5880 5878 5879 5879 5879 5879 5879 5879 5880 5880 5879 5879 5879 5879 5878 5878 5877 5876 5875 5874 5873 5872 5871 5870 5869 5868 5867 5867 5866 5865 5865 5865 5864 5864 5863 5862 5862 5861 5861 5860 5860 5859 5858 5857 5856 5855 5854 5854 5853 5852 5850 5849 5848 5847 5846 5845 5845 5844 5843 5842 5841 5840 5839 5839 5838
5861 5863 5864 5865 5866 5867 5868 5869 5870 5872 5873 5875 5879 5881 5886 5886 5882 5882 5877 5869 5866 5874 5878 5875 5877 5876 5877 5878 5877 5877 5873 5877 5878 5877 5877 5877 5878 5878 5878 5879 5879 5879 5878 5878 5878 5878 5878 5877 5876 5876 5875 5874 5873 5872 5871 5870 5869 5868 5867 5867 5866 5865 5865 5864 5864 5863 5863 5862 5861 5861 5860 5860 5859 5858 5858 5857 5856 5855 5854 5854 5853 5852 5851 5849 5848 5847 5846 5845 5845 5844 5843 5842 5842 5841 5840 5839 5838
5859 5860 5862 5863 5864 5864 5864 5866 5867 5868 5869 5873 5876 5878 5883 5882 5880 5879 5869 5865 5870 5874 5874 5874 5876 5875 5876 5876 5876 5875 5872 5874 5875 5875 5875 5875 5877 5877 5877 5878 5878 5878 5877 5877 5877 5877 5877 5876 5876 5875 5874 5873 5872 5871 5871 5870 5868 5868 5867 5866 5866 5865 5865 5864 5863 5863 5863 5862 5861 5861 5860 5860 5859 5858 5857 5857 5856 5856 5854 5854 5853 5852 5851 5849 5848 5847 5846 5845 5845 5844 5843 5842 5842 5841 5840 5839 5838
5856 5857 5859 5860 5861 5861 5861 5863 5864 5865 5866 5870 5871 5873 5875 5875 5876 5872 5865 5866 5871 5872 5872 5873 5874 5874 5875 5875 5875 5874 5872 5872 5873 5873 5873 5874 5875 5875 5876 5876 5877 5877 5876 5876 5876 5876 5876 5876 5875 5874 5874 5873 5872 5871 5870 5869 5868 5867 5866 5866 5865 5864 5864 5863 5863 5863 5862 5861 5861 5860 5860 5859 5859 5858 5857 5857 5856 5856 5855 5854 5853 5852 5851 5849 5848 5847 5846 5845 5845 5844 5843 5842 5841 5841 5840 5840 5839
5853 5854 5855 5857 5858 5857 5859 5860 5860 5862 5864 5867 5868 5869 5871 5873 5871 5866 5865 5867 5868 5870 5871 5871 5873 5875 5874 5873 5873 5872 5872 5871 5871 5872 5871 5872 5873 5873 5875 5875 5875 5875 5875 5875 5875 5875 5875 5875 5874 5873 5873 5872 5871 5870 5869 5868 5867 5866 5866 5865 5864 5864 5863 5863 5862 5862 5861 5861 5860 5860 5859 5859 5858 5858 5857 5857 5856 5855 5855 5854 5853 5852 5851 5850 5849 5847 5846 5845 5845 5844 5843 5842 5841 5841 5840 5840 5839
5850 5852 5852 5852 5855 5854 5856 5856 5857 5860 5861 5864 5865 5866 5869 5869 5866 5864 5866 5865 5866 5867 5868 5870 5871 5874 5873 5871 5871 5870 5871 5869 5869 5870 5870 5871 5871 5872 5873 5873 5874 5874 5874 5874 5874 5874 5874 5874 5873 5873 5872 5871 5870 5869 5868 5867 5866 5865 5865 5864 5863 5863 5862 5862 5862 5861 5861 5860 5860 5859 5859 5858 5858 5858 5857 5856 5856 5855 5855 5854 5853 5852 5851 5850 5849 5848 5847 5845 5844 5844 5843 5842 5841 5841 5840 5840 5839
5847 5849 5850 5848 5851 5852 5851 5853 5855 5857 5859 5862 5862 5864 5866 5866 5863 5864 5865 5863 5865 5865 5867 5870 5870 5873 5873 5870 5868 5869 5870 5868 5868 5869 5869 5869 5869 5870 5870 5872 5872 5872 5873 5873 5873 5873 5872 5872 5872 5871 5871 5870 5869 5868 5867 5866 5865 5864 5864 5863 5863 5862 5862 5861 5861 5861 5860 5860 5859 5859 5858 5858 5858 5857 5857 5857 5856 5855 5854 5854 5852 5851 5850 5849 5849 5848 5847 5846 5844 5843 5843 5842 5841 5840 5840 5840 5839
5843 5845 5847 5845 5846 5848 5847 5850 5852 5854 5857 5859 5860 5861 5863 5864 5862 5861 5862 5862 5863 5864 5866 5867 5867 5870 5871 5870 5865 5865 5869 5867 5868 5868 5867 5868 5868 5868 5869 5870 5871 5871 5872 5872 5871 5871 5871 5871 5871 5870 5869 5869 5868 5867 5866 5865 5864 5864 5863 5862 5862 5861 5861 5861 5860 5860 5859 5859 5859 5858 5858 5858 5857 5857 5857 5857 5856 5855 5854 5853 5852 5851 5850 5849 5848 5848 5847 5846 5844 5843 5842 5842 5841 5840 5840 5839 5839
5839 5840 5843 5843 5842 5845 5846 5848 5850 5853 5855 5856 5858 5857 5860 5862 5858 5856 5860 5862 5861 5862 5864 5864 5865 5867 5869 5870 5863 5861 5867 5867 5866 5867 5866 5866 5867 5866 5867 5869 5869 5869 5870 5870 5870 5870 5870 5870 5870 5869 5868 5867 5867 5866 5865 5864 5863 5863 5862 5861 5861 5860 5860 5860 5860 5859 5859 5858 5858 5858 5857 5857 5857 5857 5857 5856 5856 5855 5854 5853 5851 5850 5849 5848 5848 5847 5847 5846 5844 5843 5842 5841 5841 5840 5839 5839 5838
5836 5836 5838 5839 5839 5842 5845 5846 5848 5850 5851 5855 5855 5852 5856 5858 5854 5854 5858 5860 5860 5860 5862 5862 5862 5864 5866 5866 5860 5859 5865 5866 5865 5865 5865 5864 5865 5865 5865 5867 5867 5868 5869 5868 5868 5869 5869 5869 5868 5867 5866 5866 5865 5865 5864 5863 5863 5862 5861 5861 5860 5860 5859 5859 5859 5858 5858 5858 5857 5857 5857 5857 5857 5856 5856 5856 5856 5855 5853 5852 5851 5850 5849 5848 5847 5847 5846 5846 5844 5843 5842 5841 5841 5840 5839 5839 5838
5832 5834 5833 5834 5837 5839 5841 5843 5845 5847 5847 5852 5851 5848 5852 5852 5851 5854 5855 5857 5858 5859 5860 5859 5859 5861 5863 5861 5857 5858 5861 5862 5863 5863 5863 5863 5864 5863 5863 5864 5865 5866 5867 5866 5867 5867 5867 5867 5867 5866 5865 5864 5864 5863 5863 5862 5862 5861 5860 5860 5860 5859 5859 5858 5858 5858 5857 5857 5857 5856 5856 5856 5856 5856 5856 5855 5855 5854 5853 5852 5851 5849 5848 5847 5846 5846 5846 5845 5844 5842 5841 5841 5840 5840 5839 5838 5838
5828 5831 5829 5829 5833 5835 5838 5840 5842 5845 5844 5846 5847 5844 5844 5846 5851 5852 5852 5854 5854 5857 5857 5855 5856 5859 5860 5858 5854 5854 5856 5857 5859 5860 5860 5861 5861 5861 5861 5862 5863 5864 5865 5865 5865 5865 5865 5865 5865 5864 5863 5863 5862 5862 5862 5861 5861 5860 5860 5859 5859 5858 5858 5857 5857 5857 5857 5856 5856 5856 5856 5856 5856 5856 5855 5854 5854 5853 5852 5851 5850 5849 5848 5847 5846 5845 5845 5845 5844 5843 5841 5840 5840 5839 5839 5838 5838
5823 5826 5826 5825 5829 5832 5835 5836 5838 5841 5840 5843 5844 5838 5837 5844 5849 5847 5848 5851 5851 5852 5852 5853 5855 5856 5856 5857 5852 5848 5851 5853 5856 5856 5857 5859 5858 5858 5859 5860 5861 5862 5863 5863 5863 5863 5863 5863 5862 5862 5862 5861 5861 5861 5861 5860 5860 5859 5859 5859 5858 5858 5857 5857 5857 5856 5856 5855 5855 5855 5855 5855 5855 5855 5854 5853 5853 5852 5852 5851 5850 5849 5848 5847 5846 5845 5844 5843 5843 5843 5842 5840 5839 5839 5838 5838 5837
5819 5822 5822 5821 5825 5829 5832 5833 5835 5836 5838 5842 5836 5830 5836 5842 5843 5843 5844 5847 5849 5848 5849 5851 5851 5853 5852 5853 5848 5843 5847 5850 5852 5853 5854 5855 5855 5856 5857 5858 5859 5860 5861 5860 5861 5861 5861 5861 5860 5860 5860 5860 5860 5860 5860 5859 5859 5858 5858 5858 5857 5857 5857 5856 5856 5856 5855 5855 5855 5854 5854 5854 5854 5854 5853 5852 5852 5851 5850 5850 5849 5848 5847 5846 5845 5844 5843 5842 5841 5841 5841 5840 5839 5838 5838 5837 5837
5815 5817 5817 5818 5822 5825 5829 5830 5831 5832 5837 5836 5827 5829 5838 5838 5837 5840 5840 5843 5848 5845 5845 5848 5847 5850 5848 5846 5844 5840 5844 5848 5849 5850 5851 5852 5853 5854 5855 5856 5857 5857 5858 5858 5859 5859 5859 5859 5858 5858 5858 5859 5859 5859 5858 5858 5858 5857 5857 5857 5857 5857 5856 5856 5855 5855 5854 5854 5854 5854 5853 5853 5853 5853 5852 5852 5851 5850 5850 5849 5848 5848 5847 5846 5845 5844 5843 5842 5841 5840 5839 5839 5839 5838 5837 5837 5836
5810 5813 5813 5815 5819 5822 5825 5827 5829 5828 5831 5829 5822 5829 5836 5835 5834 5836 5839 5841 5844 5842 5842 5844 5844 5846 5843 5840 5839 5840 5843 5845 5846 5847 5849 5850 5851 5851 5852 5854 5854 5855 5856 5856 5856 5856 5857 5857 5856 5856 5857 5858 5858 5858 5857 5857 5857 5857 5856 5856 5856 5856 5855 5855 5855 5854 5854 5853 5853 5853 5853 5852 5852 5852 5851 5851 5850 5850 5849 5848 5847 5847 5846 5846 5845 5844 5843 5841 5840 5839 5838 5837 5837 5837 5836 5836 5835
5806 5809 5809 5812 5815 5818 5821 5823 5824 5821 5824 5824 5820 5827 5832 5832 5831 5832 5837 5838 5839 5840 5840 5841 5841 5841 5839 5836 5836 5839 5842 5842 5844 5845 5846 5848 5848 5849 5850 5851 5852 5853 5854 5854 5854 5855 5855 5855 5854 5855 5856 5857 5857 5857 5856 5856 5856 5856 5856 5856 5856 5855 5855 5854 5854 5854 5853 5853 5852 5852 5852 5851 5851 5851 5850 5850 5849 5849 5848 5847 5847 5846 5846 5845 5845 5844 5843 5841 5840 5839 5838 5837 5836 5835 5835 5835 5834
5803 5805 5806 5810 5812 5815 5816 5816 5816 5815 5819 5821 5818 5824 5829 5829 5829 5830 5834 5835 5836 5838 5838 5838 5838 5837 5836 5835 5835 5837 5839 5840 5841 5842 5844 5845 5846 5846 5847 5849 5849 5851 5851 5851 5852 5852 5852 5853 5853 5853 5855 5855 5855 5856 5855 5855 5855 5855 5855 5855 5855 5855 5854 5854 5853 5853 5853 5852 5852 5851 5851 5850 5850 5849 5849 5849 5849 5848 5847 5847 5846 5846 5845 5844 5844 5843 5843 5841 5840 5839 5837 5836 5835 5834 5834 5834 5833
5800 5801 5804 5807 5809 5811 5810 5808 5811 5813 5816 5818 5817 5821 5825 5826 5826 5828 5831 5833 5835 5835 5835 5835 5835 5834 5834 5834 5834 5835 5836 5836 5838 5840 5841 5842 5843 5844 5845 5846 5847 5849 5849 5849 5850 5850 5850 5851 5851 5852 5853 5853 5854 5854 5854 5855 5855 5855 5855 5855 5855 5854 5854 5853 5852 5852 5852 5851 5851 5850 5850 5849 5849 5848 5848 5847 5847 5847 5846 5846 5845 5845 5844 5844 5843 5843 5842 5841 5840 5839 5837 5836 5834 5833 5832 5833 5833
5797 5798 5802 5804 5804 5806 5805 5804 5808 5810 5811 5814 5815 5818 5821 5822 5822 5826 5828 5830 5832 5830 5830 5832 5832 5832 5832 5832 5832 5832 5833 5834 5836 5838 5839 5840 5841 5842 5843 5844 5846 5847 5847 5847 5848 5848 5849 5849 5850 5851 5852 5852 5852 5853 5853 5854 5854 5854 5854 5854 5854 5853 5853 5852 5852 5851 5851 5851 5850 5849 5849 5848 5848 5847 5847 5846 5846 5846 5845 5845 5844 5844 5844 5843 5842 5842 5841 5840 5839 5838 5837 5836 5834 5833 5832 5831 5831
5793 5795 5797 5799 5799 5801 5802 5802 5805 5806 5808 5810 5812 5814 5817 5817 5820 5824 5825 5827 5828 5827 5828 5830 5830 5830 5831 5831 5831 5831 5832 5833 5835 5836 5837 5839 5839 5840 5841 5843 5844 5845 5845 5845 5846 5847 5847 5847 5849 5849 5850 5851 5851 5852 5852 5853 5853 5853 5853 5853 5853 5853 5852 5852 5851 5851 5850 5850 5849 5848 5848 5847 5846 5846 5846 5845 5845 5844 5844 5844 5843 5843 5843 5842 5842 5841 5840 5839 5838 5838 5837 5836 5834 5833 5831 5830 5830
5790 5792 5793 5796 5796 5797 5799 5799 5801 5803 5805 5807 5808 5810 5812 5814 5818 5821 5821 5824 5825 5825 5826 5827 5828 5829 5829 5829 5829 5830 5832 5833 5834 5834 5836 5837 5837 5839 5840 5841 5842 5843 5843 5844 5845 5845 5845 5846 5847 5848 5849 5850 5850 5851 5851 5852 5852 5852 5852 5852 5852 5852 5852 5851 5851 5850 5849 5849 5848 5847 5846 5846 5845 5845 5845 5844 5844 5843 5843 5843 5842 5842 5841 5841 5841 5840 5839 5838 5837 5837 5836 5835 5834 5833 5831 5830 5829
5785 5789 5789 5792 5793 5794 5796 5796 5798 5800 5802 5803 5804 5806 5808 5812 5815 5816 5818 5821 5821 5822 5823 5824 5826 5827 5826 5825 5825 5828 5830 5830 5831 5833 5834 5835 5836 5837 5838 5839 5840 5841 5841 5842 5843 5843 5844 5844 5846 5847 5848 5848 5849 5850 5851 5851 5851 5851 5851 5851 5851 5851 5851 5850 5850 5849 5848 5848 5847 5846 5845 5845 5844 5844 5844 5843 5843 5842 5842 5842 5841 5841 5840 5840 5840 5839 5838 5837 5837 5836 5835 5835 5834 5833 5832 5830 5829
5782 5786 5787 5788 5790 5791 5793 5794 5795 5797 5799 5800 5801 5803 5805 5809 5811 5812 5816 5817 5817 5820 5821 5821 5824 5824 5823 5823 5823 5826 5828 5828 5829 5831 5832 5833 5835 5836 5837 5838 5838 5839 5840 5840 5841 5841 5842 5843 5844 5845 5846 5847 5848 5849 5849 5850 5850 5850 5850 5850 5850 5850 5850 5849 5849 5848 5847 5847 5846 5845 5845 5844 5844 5844 5843 5842 5842 5842 5841 5841 5840 5839 5839 5839 5839 5838 5837 5837 5836 5835 5835 5834 5833 5832 5832 5830 5829
5779 5782 5783 5784 5787 5788 5789 5791 5792 5794 5796 5797 5799 5800 5803 5805 5806 5810 5813 5812 5814 5816 5818 5819 5821 5821 5821 5821 5822 5825 5826 5826 5827 5829 5831 5832 5833 5834 5835 5836 5837 5837 5838 5838 5839 5839 5840 5841 5842 5843 5844 5846 5847 5847 5848 5848 5849 5849 5848 5849 5849 5849 5848 5848 5848 5847 5846 5845 5845 5844 5844 5843 5843 5843 5842 5842 5842 5841 5840 5839 5839 5838 5838 5838 5837 5837 5837 5836 5835 5835 5834 5833 5832 5832 5831 5830 5829
5773 5777 5780 5781 5784 5785 5786 5788 5789 5791 5793 5794 5796 5798 5801 5801 5802 5808 5808 5807 5811 5813 5815 5817 5818 5819 5819 5819 5821 5823 5824 5825 5826 5827 5829 5830 5831 5832 5833 5834 5835 5836 5836 5836 5837 5837 5838 5839 5840 5841 5843 5844 5845 5846 5846 5847 5847 5847 5847 5848 5848 5847 5847 5847 5846 5846 5845 5844 5843 5843 5842 5842 5842 5842 5842 5842 5841 5840 5839 5839 5838 5838 5837 5837 5837 5836 5835 5835 5834 5834 5833 5832 5831 5831 5830 5829 5828
5769 5774 5778 5778 5780 5781 5783 5785 5786 5789 5790 5792 5794 5795 5797 5797 5800 5806 5804 5804 5809 5810 5812 5814 5815 5816 5817 5818 5819 5821 5822 5823 5824 5825 5827 5828 5829 5830 5831 5832 5833 5833 5834 5834 5835 5835 5836 5837 5839 5840 5841 5842 5843 5844 5845 5845 5846 5846 5846 5846 5846 5846 5846 5845 5845 5844 5843 5843 5842 5842 5841 5842 5841 5841 5841 5840 5839 5839 5838 5838 5837 5837 5837 5836 5836 5835 5834 5834 5834 5833 5832 5832 5831 5830 5829 5829 5827
5765 5770 5774 5775 5777 5778 5780 5783 5784 5786 5787 5790 5792 5792 5794 5795 5799 5804 5802 5803 5805 5807 5810 5811 5812 5813 5814 5816 5818 5819 5820 5821 5822 5823 5824 5825 5826 5828 5829 5830 5830 5830 5831 5832 5833 5834 5835 5836 5837 5839 5840 5841 5842 5843 5844 5844 5844 5845 5845 5845 5844 5844 5844 5843 5843 5842 5842 5841 5841 5841 5840 5841 5840 5840 5839 5839 5838 5838 5837 5836 5836 5836 5835 5835 5834 5834 5834 5833 5833 5832 5832 5831 5830 5829 5829 5828 5826
5763 5768 5770 5771 5773 5775 5778 5780 5781 5783 5785 5787 5789 5790 5792 5794 5798 5800 5800 5801 5802 5804 5806 5807 5809 5810 5810 5813 5814 5815 5817 5818 5819 5821 5822 5823 5824 5825 5826 5826 5826 5826 5828 5829 5831 5832 5834 5835 5836 5838 5839 5840 5841 5841 5842 5842 5843 5843 5843 5843 5842 5842 5842 5841 5841 5841 5840 5840 5840 5839 5839 5839 5839 5839 5838 5838 5837 5837 5836 5835 5835 5835 5834 5834 5833 5833 5832 5832 5832 5831 5831 5830 5830 5829 5828 5827 5825
5760 5764 5766 5768 5770 5773 5776 5777 5779 5780 5782 5785 5786 5788 5790 5792 5795 5797 5798 5799 5800 5801 5802 5804 5806 5806 5807 5809 5810 5811 5813 5815 5816 5817 5819 5820 5821 5822 5822 5822 5823 5824 5827 5829 5830 5831 5832 5834 5836 5837 5838 5839 5839 5840 5840 5841 5841 5841 5841 5841 5840 5839 5839 5839 5839 5839 5839 5838 5838 5838 5838 5838 5838 5838 5837 5837 5836 5836 5835 5835 5834 5834 5833 5833 5832 5832 5831 5831 5831 5830 5830 5829 5829 5828 5827 5826 5824
5757 5760 5763 5766 5767 5773 5774 5772 5775 5778 5779 5782 5784 5786 5790 5792 5793 5793 5795 5797 5798 5798 5798 5800 5802 5802 5803 5804 5805 5807 5809 5811 5813 5814 5815 5817 5818 5820 5821 5823 5825 5828 5829 5830 5830 5831 5832 5833 5835 5836 5837 5837 5838 5838 5839 5839 5839 5839 5839 5838 5838 5837 5837 5837 5837 5837 5837 5837 5837 5837 5837 5837 5836 5836 5836 5836 5835 5835 5834 5834 5833 5833 5832 5832 5831 5830 5830 5830 5829 5829 5828 5828 5827 5826 5825 5824 5824
5753 5756 5760 5763 5765 5771 5773 5768 5772 5777 5777 5779 5782 5784 5787 5793 5793 5788 5791 5796 5795 5795 5795 5796 5798 5798 5798 5799 5800 5802 5805 5807 5808 5811 5813 5815 5817 5818 5820 5823 5825 5827 5828 5829 5829 5830 5832 5833 5834 5835 5835 5836 5836 5837 5836 5837 5836 5836 5836 5835 5835 5834 5834 5834 5835 5835 5835 5835 5835 5835 5835 5835 5835 5835 5835 5835 5834 5834 5833 5833 5832 5832 5831 5830 5830 5829 5829 5828 5828 5828 5827 5826 5826 5825 5824 5823 5822
5750 5752 5757 5760 5762 5768 5770 5766 5769 5774 5775 5777 5780 5782 5785 5793 5794 5786 5787 5792 5792 5793 5791 5791 5792 5792 5792 5792 5794 5798 5801 5803 5805 5808 5811 5814 5815 5816 5819 5822 5823 5824 5825 5826 5828 5830 5831 5832 5833 5834 5834 5835 5835 5835 5834 5834 5834 5833 5833 5832 5832 5832 5832 5832 5833 5833 5833 5833 5833 5833 5834 5834 5834 5834 5833 5834 5833 5833 5832 5832 5831 5831 5830 5829 5829 5828 5827 5827 5826 5826 5826 5825 5824 5823 5823 5822 5821
5747 5751 5755 5760 5762 5764 5767 5766 5767 5772 5774 5774 5778 5780 5783 5789 5789 5783 5785 5788 5790 5789 5785 5787 5789 5788 5788 5788 5790 5795 5798 5800 5803 5807 5810 5812 5813 5815 5819 5821 5822 5823 5823 5824 5826 5828 5829 5831 5832 5833 5834 5833 5833 5832 5831 5831 5831 5830 5830 5829 5829 5828 5828 5829 5830 5831 5830 5831 5831 5832 5832 5832 5832 5832 5832 5832 5832 5831 5831 5830 5830 5829 5829 5828 5827 5827 5826 5826 5825 5824 5824 5823 5823 5822 5821 5821 5820
5745 5748 5752 5758 5759 5760 5766 5766 5764 5769 5772 5772 5775 5778 5780 5784 5783 5781 5783 5786 5788 5785 5781 5786 5787 5785 5786 5787 5789 5793 5795 5797 5800 5804 5808 5809 5811 5814 5816 5818 5820 5821 5822 5824 5825 5826 5828 5829 5831 5832 5832 5831 5831 5830 5828 5828 5828 5827 5826 5826 5825 5824 5824 5826 5827 5828 5828 5828 5829 5830 5830 5831 5831 5831 5831 5831 5831 5830 5830 5829 5829 5828 5827 5827 5826 5826 5825 5824 5824 5823 5822 5822 5822 5821 5820 5819 5818
5741 5745 5748 5753 5755 5757 5765 5763 5759 5766 5770 5770 5773 5775 5777 5780 5779 5779 5781 5782 5783 5783 5781 5783 5782 5781 5783 5786 5790 5792 5793 5796 5798 5801 5804 5806 5810 5812 5813 5815 5817 5819 5820 5823 5824 5826 5827 5828 5829 5829 5829 5829 5827 5825 5824 5824 5824 5824 5823 5823 5823 5822 5822 5823 5825 5826 5826 5826 5827 5828 5828 5829 5829 5830 5830 5829 5829 5829 5828 5828 5827 5826 5826 5825 5825 5824 5824 5823 5822 5822 5821 5821 5820 5820 5819 5818 5817
5735 5739 5743 5749 5752 5757 5762 5758 5756 5764 5768 5768 5770 5772 5774 5777 5777 5777 5778 5779 5780 5781 5779 5777 5777 5780 5785 5788 5791 5792 5792 5794 5797 5799 5801 5805 5808 5810 5811 5813 5814 5816 5818 5820 5822 5824 5825 5827 5827 5827 5826 5823 5821 5820 5821 5822 5823 5823 5824 5824 5824 5822 5821 5822 5824 5825 5825 5825 5825 5826 5827 5827 5828 5828 5828 5828 5827 5827 5826 5826 5825 5825 5824 5823 5823 5823 5822 5822 5821 5820 5820 5819 5819 5818 5818 5817 5816
5730 5735 5740 5747 5751 5756 5760 5755 5753 5761 5765 5766 5768 5769 5771 5773 5774 5774 5775 5777 5778 5776 5773 5773 5775 5781 5787 5790 5792 5794 5793 5793 5794 5797 5799 5803 5806 5807 5809 5810 5812 5814 5816 5817 5819 5821 5824 5825 5825 5824 5821 5817 5817 5819 5820 5822 5823 5824 5824 5825 5825 5824 5821 5820 5823 5824 5824 5824 5824 5825 5825 5826 5826 5826 5826 5826 5826 5825 5825 5824 5824 5823 5823 5822 5822 5821 5821 5820 5820 5819 5819 5818 5817 5817 5816 5815 5814
5727 5733 5740 5747 5749 5753 5758 5753 5750 5759 5763 5764 5765 5766 5767 5769 5770 5771 5772 5775 5775 5770 5768 5772 5776 5781 5786 5787 5788 5791 5793 5793 5794 5795 5797 5800 5803 5805 5807 5809 5810 5812 5814 5815 5817 5819 5821 5822 5822 5819 5814 5814 5817 5819 5820 5821 5822 5821 5822 5822 5823 5824 5821 5819 5821 5823 5823 5823 5823 5823 5824 5824 5825 5825 5825 5825 5824 5824 5823 5822 5822 5822 5821 5821 5820 5820 5819 5819 5819 5818 5817 5817 5816 5815 5814 5813 5812
5725 5731 5737 5743 5746 5750 5753 5749 5749 5756 5759 5759 5761 5763 5764 5766 5767 5769 5770 5771 5770 5767 5767 5771 5777 5782 5785 5785 5785 5786 5789 5790 5792 5795 5797 5798 5801 5803 5805 5807 5809 5810 5812 5813 5814 5816 5818 5818 5818 5815 5813 5816 5819 5819 5820 5820 5819 5818 5818 5819 5820 5821 5820 5819 5820 5821 5821 5822 5822 5822 5823 5823 5823 5823 5823 5823 5823 5822 5822 5821 5821 5821 5820 5819 5819 5819 5818 5818 5817 5817 5816 5815 5814 5814 5813 5811 5810
5724 5728 5733 5738 5743 5747 5747 5745 5747 5753 5756 5757 5759 5762 5764 5765 5765 5766 5768 5768 5766 5766 5766 5768 5774 5782 5784 5783 5784 5785 5786 5787 5790 5794 5796 5797 5799 5801 5804 5806 5807 5808 5809 5810 5811 5813 5813 5814 5814 5812 5814 5817 5817 5818 5818 5817 5816 5816 5816 5817 5818 5819 5819 5818 5818 5820 5820 5821 5821 5821 5822 5822 5822 5822 5822 5822 5822 5821 5821 5821 5820 5819 5819 5818 5818 5817 5816 5816 5815 5815 5814 5813 5813 5812 5811 5810 5808
5721 5725 5730 5734 5738 5742 5742 5742 5745 5751 5755 5756 5756 5760 5763 5764 5763 5763 5766 5767 5764 5765 5767 5766 5771 5778 5780 5781 5782 5784 5785 5786 5789 5793 5793 5794 5797 5800 5802 5804 5805 5806 5806 5807 5808 5809 5810 5811 5811 5812 5814 5814 5814 5814 5814 5814 5814 5814 5815 5815 5817 5817 5817 5816 5816 5818 5819 5819 5819 5820 5820 5820 5820 5820 5820 5820 5820 5820 5820 5819 5819 5818 5817 5817 5816 5815 5815 5814 5813 5813 5812 5811 5811 5810 5809 5808 5807
5719 5721 5727 5731 5733 5737 5739 5740 5744 5749 5753 5753 5753 5756 5759 5761 5762 5761 5763 5764 5762 5763 5766 5767 5770 5773 5776 5778 5780 5782 5782 5784 5787 5789 5791 5792 5794 5797 5799 5801 5802 5803 5803 5804 5805 5807 5808 5809 5809 5811 5813 5812 5812 5811 5812 5813 5812 5811 5813 5814 5815 5815 5814 5813 5814 5815 5816 5817 5817 5818 5818 5818 5819 5819 5819 5819 5819 5818 5818 5818 5817 5817 5816 5815 5814 5814 5813 5812 5811 5811 5810 5809 5808 5807 5807 5806 5804
5717 5718 5722 5727 5729 5733 5735 5737 5742 5747 5749 5750 5750 5752 5755 5758 5760 5759 5758 5760 5761 5762 5763 5765 5768 5772 5774 5776 5778 5779 5779 5780 5783 5786 5788 5790 5791 5794 5797 5798 5800 5800 5801 5802 5804 5805 5806 5806 5807 5808 5810 5810 5810 5810 5811 5811 5809 5808 5810 5812 5813 5813 5811 5811 5813 5814 5815 5815 5816 5816 5816 5817 5817 5817 5817 5817 5817 5817 5816 5816 5815 5815 5814 5813 5813 5812 5811 5810 5809 5808 5808 5807 5806 5805 5804 5803 5802
5713 5712 5716 5722 5726 5731 5732 5735 5741 5743 5744 5746 5747 5749 5752 5755 5758 5757 5756 5759 5762 5762 5762 5762 5764 5768 5772 5775 5776 5777 5777 5778 5780 5783 5785 5787 5788 5791 5794 5795 5797 5798 5799 5800 5802 5803 5804 5804 5805 5806 5808 5808 5808 5808 5809 5810 5808 5808 5809 5810 5811 5811 5810 5811 5812 5813 5814 5814 5814 5815 5815 5815 5815 5815 5816 5815 5815 5815 5814 5814 5813 5813 5812 5811 5810 5810 5809 5808 5807 5806 5805 5804 5803 5802 5801 5800 5799
5707 5705 5711 5719 5723 5727 5729 5732 5736 5737 5739 5742 5744 5747 5749 5752 5756 5756 5754 5758 5761 5762 5763 5762 5761 5763 5768 5772 5774 5776 5777 5777 5778 5780 5782 5784 5786 5788 5791 5793 5794 5795 5797 5798 5800 5801 5802 5802 5803 5804 5805 5807 5807 5807 5807 5808 5808 5808 5808 5808 5809 5809 5810 5811 5811 5812 5813 5813 5813 5813 5814 5814 5814 5814 5814 5814 5813 5813 5812 5812 5811 5811 5810 5809 5808 5807 5806 5805 5805 5804 5803 5802 5801 5799 5798 5797 5796
5700 5700 5709 5717 5720 5723 5725 5728 5731 5733 5736 5738 5742 5746 5747 5749 5753 5756 5754 5755 5758 5760 5762 5763 5761 5761 5763 5766 5771 5775 5775 5775 5775 5777 5780 5782 5784 5785 5788 5790 5791 5793 5794 5795 5797 5799 5799 5800 5800 5801 5803 5804 5805 5805 5805 5806 5805 5805 5805 5806 5807 5808 5809 5810 5810 5811 5811 5812 5812 5812 5812 5812 5813 5813 5812 5812 5811 5811 5810 5810 5809 5809 5808 5807 5806 5805 5804 5803 5802 5801 5800 5799 5798 5797 5796 5794 5793
5694 5697 5708 5713 5715 5718 5720 5723 5727 5729 5733 5736 5740 5743 5745 5746 5749 5753 5753 5751 5754 5758 5760 5761 5762 5762 5761 5760 5765 5770 5771 5772 5773 5775 5778 5780 5781 5782 5784 5787 5789 5791 5791 5792 5793 5795 5796 5796 5797 5799 5800 5801 5803 5802 5802 5802 5802 5803 5803 5805 5806 5807 5808 5808 5809 5809 5810 5810 5810 5810 5811 5811 5811 5811 5810 5810 5809 5809 5808 5808 5807 5806 5805 5804 5803 5802 5801 5800 5799 5798 5797 5796 5795 5794 5793 5791 5790
5691 5697 5708 5710 5713 5715 5717 5721 5724 5726 5730 5734 5737 5739 5741 5744 5745 5748 5748 5746 5752 5757 5758 5760 5761 5762 5762 5760 5761 5765 5767 5769 5771 5773 5776 5777 5778 5779 5781 5784 5787 5788 5788 5789 5790 5792 5792 5792 5794 5796 5798 5799 5799 5799 5799 5799 5800 5801 5802 5803 5804 5805 5806 5807 5807 5808 5808 5808 5808 5809 5809 5809 5809 5809 5808 5808 5807 5807 5806 5805 5805 5804 5803 5802 5801 5800 5799 5798 5797 5795 5794 5793 5792 5791 5789 5788 5787
5689 5696 5704 5706 5711 5715 5716 5720 5723 5725 5729 5731 5732 5735 5738 5739 5740 5742 5743 5745 5752 5755 5757 5758 5759 5761 5762 5761 5762 5763 5765 5767 5768 5771 5773 5774 5776 5777 5779 5782 5785 5787 5787 5788 5790 5791 5789 5789 5791 5793 5795 5796 5796 5796 5797 5798 5798 5799 5800 5801 5802 5803 5804 5804 5805 5805 5806 5806 5806 5807 5807 5807 5807 5807 5806 5806 5805 5805 5804 5803 5802 5801 5800 5799 5798 5797 5796 5795 5794 5792 5791 5790 5789 5787 5786 5785 5783
5687 5693 5699 5702 5710 5713 5714 5717 5720 5722 5726 5727 5728 5732 5733 5734 5737 5740 5742 5745 5750 5753 5755 5757 5758 5760 5760 5761 5763 5763 5764 5765 5765 5767 5770 5772 5773 5775 5778 5781 5785 5786 5787 5789 5790 5789 5789 5789 5789 5790 5791 5792 5793 5794 5795 5796 5796 5797 5798 5799 5800 5801 5802 5802 5803 5803 5803 5804 5804 5804 5805 5805 5805 5804 5804 5803 5803 5802 5801 5800 5799 5798 5797 5796 5795 5794 5793 5792 5791 5789 5788 5787 5786 5784 5783 5781 5780
5684 5691 5697 5702 5707 5710 5712 5715 5717 5719 5723 5725 5725 5727 5730 5732 5735 5737 5739 5744 5748 5751 5754 5755 5756 5758 5759 5760 5762 5762 5762 5762 5762 5764 5768 5770 5773 5775 5778 5781 5783 5783 5784 5786 5787 5787 5788 5788 5788 5788 5789 5790 5791 5792 5793 5794 5794 5795 5796 5797 5798 5799 5799 5800 5800 5801 5801 5802 5802 5802 5802 5802 5802 5802 5801 5801 5800 5799 5799 5798 5797 5796 5795 5793 5792 5791 5790 5789 5788 5786 5785 5784 5783 5781 5780 5778 5777
5683 5690 5696 5699 5702 5705 5709 5711 5712 5714 5718 5722 5723 5724 5728 5731 5731 5733 5737 5742 5746 5749 5752 5753 5754 5756 5758 5759 5760 5760 5761 5761 5762 5764 5767 5770 5773 5775 5776 5777 5779 5779 5781 5784 5786 5786 5786 5787 5788 5788 5788 5789 5790 5791 5792 5793 5793 5794 5794 5795 5796 5797 5797 5798 5798 5799 5799 5800 5800 5800 5800 5800 5799 5799 5798 5798 5797 5796 5796 5795 5794 5793 5792 5791 5790 5788 5787 5786 5784 5783 5782 5780 5779 5777 5776 5774 5773
5680 5686 5691 5694 5698 5702 5706 5707 5708 5711 5715 5719 5721 5722 5726 5729 5729 5730 5735 5740 5743 5746 5749 5750 5752 5754 5755 5756 5757 5758 5759 5761 5762 5764 5765 5768 5770 5771 5772 5774 5776 5777 5779 5782 5783 5783 5784 5785 5786 5787 5788 5789 5789 5790 5791 5791 5792 5792 5793 5793 5794 5794 5795 5795 5796 5796 5797 5797 5797 5797 5797 5797 5797 5796 5796 5795 5794 5793 5793 5792 5791 5790 5789 5788 5787 5785 5784 5782 5781 5780 5778 5777 5775 5774 5772 5771 5769
5676 5681 5686 5691 5695 5699 5703 5704 5705 5709 5713 5716 5719 5721 5724 5727 5726 5726 5731 5736 5740 5743 5746 5748 5749 5751 5752 5753 5754 5756 5758 5759 5760 5761 5763 5765 5766 5768 5770 5772 5773 5774 5776 5778 5779 5780 5781 5782 5784 5785 5786 5787 5787 5788 5789 5790 5790 5791 5791 5791 5792 5792 5793 5793 5793 5794 5794 5794 5795 5795 5795 5794 5794 5793 5793 5792 5791 5790 5789 5789 5788 5787 5786 5785 5783 5782 5780 5779 5777 5776 5774 5773 5771 5770 5768 5767 5765
5677 5680 5682 5687 5691 5694 5697 5699 5702 5707 5712 5714 5716 5720 5722 5722 5722 5723 5728 5733 5737 5740 5743 5745 5746 5747 5749 5751 5752 5755 5756 5758 5758 5759 5761 5763 5765 5766 5768 5769 5770 5771 5772 5774 5776 5777 5777 5779 5781 5783 5784 5785 5785 5786 5787 5787 5788 5788 5789 5789 5789 5790 5790 5790 5791 5791 5791 5791 5792 5792 5792 5791 5791 5790 5790 5789 5788 5787 5787 5786 5785 5784 5783 5781 5780 5778 5777 5775 5773 5772 5770 5769 5767 5766 5764 5762 5760